Location: Gilevgi
(36.8751°N, 30.0581°E)
Time: 09:35:33
(UTC+00:00)

IRS-P3 - Pass Details

Date: 15 March 2026
Orbit: 810 x 816 km, 99.0° (Epoch: 20 April)

Event Time Altitude Azimuth Distance (km) Brightness Sun altitude
Rises 16:45:57 0° 181° (S) 3,325 7.3 -8.6°
Reaches altitude 10° 16:48:23 10° 188° (S) 2,398 6.6 -9.1°
Maximum altitude 16:53:26 45° 260° (W) 1,101 5.4 -10.1°
Drops below altitude 10° 16:58:32 10° 333° (NNW) 2,412 7.0 -11.1°
Sets 17:01:00 0° 340° (NNW) 3,347 7.7 -11.6°
